Total_Precipitation_Accumulation
0.00 0.00 0.00 0.00 0.00 0.00 0.01 0.01 0.01 0.01 0.01 0.01 0.01 0.01 0.01 0.01 0.01 0.01 0.01 0.01 0.01 0.01 0.01 0.01 0.00 0.00 0.00 0.00 0.00 0.00 0.00 0.00 0.00 0.00 0.00 0.00 0.00 0.00 0.00 0.00 0.00 0.00 0.00 0.00 0.00 0.00 0.00 0.00 0.00 0.00 0.00 0.00 0.00 0.00 0.00 0.00 0.00 0.00 0.00 0.00 0.01 0.01 0.01 0.01 0.01 0.01 0.00 0.00 0.00
0.00 0.00 0.00 0.00 0.00 0.00 0.01 0.01 0.01 0.01 0.01 0.01 0.01 0.01 0.02 0.02 0.02 0.02 0.02 0.02 0.02 0.02 0.01 0.01 0.01 0.00 0.00 0.00 0.00 0.00 0.00 0.00 0.00 0.00 0.00 0.00 0.00 0.00 0.00 0.00 0.00 0.00 0.00 0.00 0.00 0.00 0.00 0.00 0.00 0.00 0.00 0.00 0.00 0.00 0.00 0.00 0.00 0.00 0.00 0.01 0.01 0.01 0.01 0.01 0.01 0.01 0.01 0.00 0.00
0.00 0.00 0.00 0.00 0.01 0.01 0.01 0.01 0.01 0.01 0.02 0.02 0.01 0.02 0.02 0.02 0.03 0.03 0.03 0.03 0.02 0.02 0.02 0.02 0.02 0.01 0.01 0.01 0.01 0.01 0.01 0.01 0.01 0.01 0.01 0.01 0.00 0.00 0.00 0.00 0.00 0.00 0.00 0.00 0.00 0.00 0.00 0.00 0.00 0.00 0.00 0.00 0.00 0.00 0.00 0.00 0.00 0.00 0.01 0.01 0.01 0.01 0.02 0.02 0.02 0.02 0.01 0.01 0.01
0.00 0.00 0.01 0.01 0.01 0.01 0.02 0.02 0.02 0.02 0.02 0.02 0.02 0.02 0.02 0.02 0.03 0.03 0.03 0.03 0.02 0.02 0.02 0.02 0.02 0.02 0.01 0.01 0.02 0.01 0.01 0.01 0.01 0.01 0.01 0.01 0.01 0.00 0.00 0.00 0.00 0.00 0.00 0.01 0.01 0.01 0.01 0.01 0.01 0.01 0.01 0.01 0.01 0.01 0.01 0.00 0.01 0.01 0.01 0.01 0.02 0.03 0.03 0.03 0.03 0.03 0.03 0.03 0.03
0.00 0.01 0.01 0.01 0.02 0.02 0.02 0.02 0.02 0.02 0.02 0.02 0.02 0.03 0.03 0.03 0.04 0.04 0.04 0.04 0.04 0.05 0.05 0.04 0.03 0.03 0.02 0.02 0.02 0.02 0.02 0.02 0.02 0.02 0.02 0.02 0.01 0.01 0.01 0.01 0.01 0.01 0.01 0.01 0.01 0.01 0.01 0.01 0.02 0.02 0.01 0.01 0.01 0.01 0.01 0.01 0.01 0.02 0.02 0.02 0.03 0.04 0.04 0.04 0.04 0.04 0.04 0.04 0.04
0.01 0.01 0.01 0.02 0.02 0.02 0.02 0.03 0.03 0.03 0.03 0.03 0.03 0.04 0.04 0.05 0.05 0.06 0.06 0.06 0.06 0.05 0.05 0.04 0.03 0.03 0.03 0.03 0.03 0.02 0.02 0.02 0.02 0.02 0.02 0.02 0.02 0.02 0.02 0.02 0.02 0.02 0.02 0.02 0.01 0.02 0.03 0.03 0.03 0.04 0.03 0.02 0.02 0.01 0.01 0.01 0.01 0.02 0.03 0.04 0.04 0.04 0.05 0.05 0.05 0.05 0.05 0.06 0.06
0.02 0.02 0.02 0.02 0.03 0.03 0.03 0.03 0.03 0.03 0.03 0.04 0.05 0.05 0.05 0.05 0.05 0.05 0.05 0.05 0.04 0.04 0.03 0.03 0.03 0.03 0.03 0.03 0.03 0.03 0.03 0.02 0.02 0.02 0.02 0.02 0.02 0.02 0.02 0.02 0.02 0.02 0.02 0.03 0.03 0.03 0.05 0.05 0.06 0.07 0.06 0.06 0.05 0.03 0.02 0.02 0.02 0.05 0.08 0.07 0.06 0.06 0.06 0.06 0.06 0.06 0.06 0.06 0.06
0.03 0.03 0.03 0.03 0.03 0.03 0.03 0.03 0.03 0.04 0.04 0.05 0.05 0.05 0.05 0.05 0.05 0.04 0.04 0.04 0.04 0.04 0.04 0.04 0.03 0.03 0.03 0.03 0.04 0.04 0.03 0.03 0.03 0.03 0.03 0.03 0.04 0.04 0.04 0.04 0.04 0.04 0.04 0.04 0.04 0.07 0.10 0.11 0.13 0.13 0.13 0.13 0.11 0.10 0.08 0.07 0.07 0.08 0.09 0.09 0.09 0.08 0.08 0.08 0.07 0.07 0.07 0.06 0.06
0.03 0.03 0.03 0.03 0.03 0.03 0.03 0.03 0.03 0.04 0.05 0.05 0.05 0.05 0.05 0.05 0.05 0.04 0.04 0.05 0.04 0.04 0.03 0.03 0.03 0.03 0.03 0.04 0.04 0.04 0.05 0.06 0.06 0.06 0.06 0.07 0.07 0.08 0.08 0.08 0.08 0.08 0.08 0.07 0.07 0.07 0.08 0.10 0.11 0.11 0.11 0.11 0.10 0.09 0.07 0.07 0.08 0.08 0.07 0.07 0.07 0.07 0.07 0.09 0.09 0.09 0.08 0.08 0.07
0.03 0.03 0.03 0.04 0.04 0.04 0.04 0.03 0.04 0.05 0.05 0.06 0.05 0.05 0.04 0.04 0.05 0.05 0.05 0.05 0.05 0.05 0.05 0.05 0.05 0.06 0.06 0.07 0.08 0.08 0.09 0.11 0.10 0.10 0.10 0.10 0.10 0.10 0.09 0.09 0.08 0.08 0.07 0.07 0.05 0.05 0.07 0.08 0.09 0.09 0.09 0.09 0.09 0.09 0.08 0.07 0.08 0.08 0.08 0.07 0.07 0.07 0.06 0.06 0.08 0.09 0.09 0.09 0.07
0.04 0.04 0.04 0.04 0.04 0.04 0.05 0.05 0.06 0.06 0.06 0.06 0.06 0.05 0.05 0.05 0.06 0.06 0.06 0.06 0.08 0.09 0.09 0.08 0.10 0.12 0.13 0.13 0.12 0.12 0.11 0.10 0.08 0.07 0.06 0.05 0.05 0.05 0.05 0.05 0.05 0.05 0.05 0.06 0.06 0.07 0.08 0.10 0.09 0.09 0.09 0.08 0.08 0.08 0.08 0.08 0.09 0.09 0.09 0.08 0.07 0.07 0.07 0.06 0.07 0.08 0.09 0.09 0.08
0.04 0.04 0.04 0.04 0.04 0.05 0.05 0.06 0.07 0.07 0.07 0.07 0.07 0.06 0.06 0.06 0.06 0.06 0.07 0.09 0.11 0.12 0.12 0.12 0.13 0.12 0.11 0.10 0.08 0.07 0.06 0.06 0.06 0.06 0.06 0.06 0.06 0.05 0.05 0.06 0.06 0.06 0.06 0.07 0.07 0.08 0.10 0.11 0.11 0.11 0.10 0.09 0.08 0.09 0.09 0.09 0.10 0.10 0.10 0.09 0.08 0.07 0.07 0.06 0.06 0.07 0.08 0.08 0.08
0.04 0.04 0.04 0.04 0.04 0.05 0.06 0.07 0.07 0.07 0.07 0.07 0.07 0.07 0.07 0.07 0.07 0.09 0.11 0.13 0.14 0.14 0.13 0.11 0.08 0.07 0.07 0.07 0.06 0.06 0.06 0.06 0.06 0.07 0.07 0.07 0.07 0.07 0.06 0.06 0.06 0.06 0.06 0.06 0.06 0.08 0.09 0.11 0.12 0.12 0.12 0.11 0.10 0.10 0.10 0.10 0.11 0.11 0.12 0.11 0.11 0.09 0.08 0.06 0.05 0.05 0.06 0.08 0.08
0.04 0.04 0.04 0.04 0.05 0.05 0.06 0.07 0.07 0.07 0.07 0.07 0.07 0.07 0.08 0.09 0.10 0.12 0.14 0.14 0.13 0.11 0.09 0.08 0.07 0.07 0.06 0.06 0.06 0.06 0.06 0.06 0.07 0.07 0.08 0.08 0.08 0.07 0.07 0.07 0.07 0.08 0.08 0.08 0.08 0.09 0.09 0.10 0.10 0.11 0.11 0.11 0.10 0.10 0.09 0.08 0.09 0.11 0.11 0.12 0.12 0.11 0.10 0.07 0.06 0.05 0.06 0.08 0.08
0.04 0.04 0.04 0.04 0.05 0.06 0.06 0.07 0.08 0.08 0.09 0.09 0.09 0.10 0.11 0.13 0.14 0.13 0.12 0.11 0.10 0.09 0.09 0.09 0.10 0.08 0.07 0.07 0.08 0.08 0.09 0.09 0.09 0.10 0.10 0.10 0.09 0.09 0.09 0.09 0.10 0.10 0.10 0.10 0.10 0.10 0.11 0.11 0.11 0.10 0.10 0.10 0.10 0.09 0.09 0.08 0.08 0.09 0.10 0.10 0.11 0.11 0.11 0.09 0.07 0.06 0.06 0.07 0.08
0.05 0.04 0.04 0.04 0.05 0.06 0.07 0.07 0.09 0.11 0.12 0.13 0.13 0.13 0.14 0.15 0.14 0.12 0.11 0.11 0.11 0.11 0.11 0.11 0.11 0.10 0.09 0.09 0.09 0.10 0.11 0.11 0.11 0.12 0.12 0.12 0.11 0.11 0.11 0.11 0.11 0.10 0.10 0.11 0.11 0.11 0.11 0.11 0.11 0.11 0.11 0.11 0.11 0.10 0.10 0.09 0.09 0.09 0.09 0.09 0.09 0.10 0.10 0.10 0.09 0.09 0.08 0.06 0.07
0.04 0.04 0.04 0.05 0.06 0.07 0.08 0.09 0.11 0.13 0.14 0.13 0.13 0.13 0.13 0.12 0.11 0.11 0.10 0.11 0.11 0.12 0.12 0.11 0.10 0.10 0.11 0.10 0.10 0.11 0.13 0.13 0.13 0.14 0.14 0.13 0.12 0.12 0.11 0.12 0.11 0.11 0.11 0.12 0.12 0.12 0.12 0.12 0.12 0.12 0.12 0.12 0.12 0.11 0.11 0.10 0.10 0.10 0.10 0.09 0.08 0.08 0.09 0.10 0.10 0.10 0.10 0.09 0.07
0.04 0.05 0.05 0.06 0.07 0.09 0.10 0.10 0.11 0.11 0.12 0.11 0.11 0.10 0.10 0.09 0.09 0.09 0.09 0.09 0.10 0.10 0.10 0.10 0.09 0.09 0.10 0.10 0.10 0.10 0.12 0.14 0.14 0.14 0.13 0.13 0.12 0.12 0.11 0.11 0.11 0.11 0.12 0.13 0.13 0.14 0.13 0.13 0.12 0.12 0.12 0.13 0.14 0.13 0.11 0.11 0.11 0.10 0.10 0.09 0.09 0.08 0.08 0.08 0.08 0.09 0.10 0.11 0.09
0.05 0.06 0.06 0.07 0.08 0.09 0.09 0.08 0.08 0.09 0.09 0.09 0.08 0.08 0.07 0.07 0.07 0.07 0.08 0.08 0.08 0.08 0.09 0.09 0.09 0.08 0.08 0.09 0.09 0.09 0.09 0.11 0.12 0.11 0.11 0.10 0.11 0.11 0.11 0.11 0.11 0.12 0.12 0.13 0.14 0.14 0.14 0.14 0.14 0.15 0.15 0.16 0.18 0.18 0.15 0.13 0.12 0.11 0.10 0.09 0.09 0.08 0.08 0.07 0.07 0.08 0.09 0.11 0.11
0.06 0.06 0.06 0.07 0.07 0.07 0.07 0.07 0.07 0.07 0.07 0.07 0.07 0.06 0.06 0.06 0.06 0.07 0.08 0.08 0.07 0.08 0.09 0.10 0.10 0.10 0.09 0.09 0.09 0.09 0.10 0.10 0.11 0.11 0.11 0.11 0.11 0.11 0.11 0.11 0.11 0.12 0.12 0.13 0.13 0.14 0.14 0.14 0.15 0.16 0.17 0.18 0.20 0.20 0.19 0.16 0.15 0.13 0.11 0.10 0.09 0.09 0.08 0.07 0.06 0.07 0.08 0.09 0.11
0.05 0.05 0.06 0.06 0.06 0.07 0.07 0.07 0.07 0.07 0.07 0.06 0.06 0.06 0.06 0.06 0.07 0.07 0.08 0.08 0.08 0.09 0.10 0.10 0.11 0.11 0.10 0.10 0.10 0.10 0.10 0.10 0.11 0.12 0.12 0.13 0.13 0.12 0.12 0.13 0.14 0.14 0.15 0.14 0.14 0.14 0.14 0.14 0.15 0.16 0.17 0.17 0.18 0.19 0.19 0.20 0.18 0.15 0.13 0.12 0.11 0.09 0.08 0.07 0.07 0.06 0.07 0.08 0.10
0.05 0.05 0.05 0.06 0.06 0.07 0.07 0.07 0.06 0.06 0.06 0.06 0.06 0.06 0.07 0.07 0.08 0.08 0.08 0.08 0.09 0.10 0.10 0.11 0.11 0.11 0.11 0.11 0.11 0.11 0.10 0.10 0.12 0.13 0.15 0.16 0.16 0.16 0.16 0.18 0.20 0.21 0.21 0.20 0.19 0.18 0.16 0.14 0.14 0.14 0.15 0.16 0.16 0.17 0.17 0.18 0.19 0.18 0.15 0.13 0.11 0.09 0.10 0.13 0.11 0.10 0.10 0.09 0.10
0.05 0.05 0.05 0.06 0.06 0.06 0.06 0.06 0.06 0.06 0.06 0.06 0.07 0.07 0.08 0.08 0.08 0.08 0.08 0.09 0.09 0.10 0.10 0.10 0.10 0.11 0.11 0.11 0.11 0.12 0.12 0.13 0.14 0.15 0.15 0.15 0.16 0.16 0.17 0.19 0.21 0.22 0.22 0.21 0.21 0.20 0.19 0.18 0.15 0.20 0.26 0.27 0.27 0.27 0.27 0.27 0.28 0.29 0.28 0.24 0.21 0.22 0.24 0.23 0.21 0.19 0.17 0.15 0.14
0.05 0.05 0.05 0.06 0.06 0.05 0.05 0.06 0.06 0.06 0.07 0.07 0.07 0.08 0.08 0.08 0.08 0.08 0.08 0.09 0.10 0.10 0.10 0.11 0.11 0.12 0.12 0.12 0.13 0.14 0.14 0.14 0.14 0.14 0.13 0.13 0.14 0.14 0.16 0.20 0.22 0.22 0.22 0.22 0.22 0.22 0.24 0.26 0.26 0.34 0.42 0.44 0.45 0.45 0.46 0.46 0.46 0.45 0.44 0.41 0.36 0.31 0.26 0.22 0.19 0.18 0.17 0.16 0.15
0.05 0.05 0.05 0.05 0.05 0.05 0.05 0.05 0.06 0.07 0.07 0.08 0.08 0.08 0.08 0.08 0.08 0.09 0.09 0.10 0.10 0.11 0.11 0.11 0.11 0.11 0.12 0.12 0.12 0.12 0.13 0.14 0.14 0.15 0.15 0.15 0.16 0.18 0.20 0.24 0.27 0.28 0.28 0.28 0.27 0.28 0.30 0.34 0.38 0.33 0.27 0.29 0.29 0.29 0.30 0.30 0.32 0.32 0.32 0.32 0.31 0.28 0.24 0.22 0.18 0.16 0.14 0.13 0.13
0.04 0.04 0.04 0.04 0.04 0.04 0.04 0.04 0.06 0.07 0.07 0.08 0.08 0.08 0.08 0.08 0.09 0.09 0.10 0.11 0.11 0.11 0.11 0.10 0.10 0.10 0.10 0.10 0.12 0.14 0.16 0.17 0.19 0.21 0.23 0.24 0.26 0.27 0.28 0.30 0.27 0.25 0.23 0.22 0.20 0.20 0.20 0.20 0.19 0.18 0.18 0.20 0.20 0.20 0.20 0.20 0.20 0.21 0.22 0.23 0.21 0.20 0.20 0.21 0.19 0.17 0.14 0.12 0.11
0.04 0.04 0.04 0.04 0.04 0.04 0.04 0.04 0.06 0.07 0.07 0.07 0.08 0.08 0.08 0.09 0.10 0.10 0.10 0.11 0.10 0.09 0.09 0.09 0.09 0.09 0.10 0.17 0.19 0.20 0.22 0.23 0.25 0.26 0.28 0.31 0.34 0.35 0.36 0.36 0.33 0.27 0.21 0.18 0.17 0.16 0.15 0.16 0.16 0.16 0.16 0.18 0.20 0.21 0.20 0.19 0.18 0.18 0.18 0.19 0.19 0.18 0.18 0.17 0.16 0.16 0.15 0.13 0.11
0.05 0.05 0.05 0.05 0.04 0.04 0.04 0.04 0.06 0.07 0.07 0.08 0.08 0.08 0.09 0.09 0.09 0.09 0.10 0.10 0.09 0.09 0.10 0.11 0.11 0.16 0.22 0.25 0.25 0.24 0.23 0.21 0.21 0.23 0.26 0.29 0.31 0.33 0.34 0.34 0.35 0.33 0.30 0.24 0.21 0.19 0.18 0.20 0.19 0.18 0.18 0.19 0.21 0.21 0.20 0.20 0.18 0.18 0.19 0.19 0.19 0.19 0.18 0.16 0.15 0.14 0.13 0.13 0.12
0.04 0.04 0.04 0.04 0.04 0.04 0.05 0.05 0.07 0.08 0.08 0.09 0.09 0.09 0.10 0.10 0.09 0.09 0.09 0.09 0.09 0.12 0.14 0.15 0.20 0.23 0.25 0.25 0.23 0.22 0.23 0.28 0.30 0.32 0.33 0.34 0.34 0.35 0.35 0.35 0.35 0.33 0.30 0.24 0.23 0.22 0.23 0.26 0.25 0.23 0.21 0.20 0.23 0.24 0.24 0.21 0.20 0.20 0.20 0.20 0.19 0.19 0.18 0.17 0.14 0.13 0.12 0.12 0.12
0.04 0.04 0.04 0.05 0.06 0.06 0.07 0.07 0.07 0.08 0.08 0.09 0.09 0.09 0.09 0.09 0.09 0.09 0.09 0.09 0.13 0.21 0.26 0.23 0.26 0.26 0.24 0.23 0.22 0.24 0.25 0.27 0.29 0.31 0.33 0.34 0.35 0.36 0.37 0.39 0.37 0.34 0.30 0.27 0.24 0.25 0.28 0.29 0.28 0.26 0.23 0.21 0.21 0.23 0.26 0.27 0.24 0.22 0.20 0.20 0.19 0.18 0.17 0.17 0.15 0.13 0.12 0.11 0.11
0.05 0.05 0.05 0.06 0.06 0.06 0.07 0.07 0.07 0.07 0.08 0.08 0.08 0.09 0.09 0.09 0.09 0.09 0.10 0.12 0.18 0.23 0.27 0.26 0.24 0.22 0.20 0.19 0.21 0.23 0.23 0.23 0.23 0.25 0.26 0.27 0.27 0.27 0.27 0.28 0.29 0.30 0.30 0.29 0.28 0.32 0.37 0.38 0.36 0.32 0.28 0.24 0.24 0.25 0.26 0.27 0.26 0.24 0.22 0.22 0.20 0.19 0.18 0.18 0.17 0.15 0.13 0.11 0.12
0.05 0.05 0.06 0.06 0.07 0.07 0.06 0.06 0.06 0.07 0.07 0.07 0.07 0.08 0.08 0.11 0.10 0.10 0.11 0.14 0.18 0.23 0.26 0.23 0.25 0.25 0.24 0.23 0.24 0.23 0.21 0.19 0.20 0.22 0.24 0.26 0.25 0.23 0.22 0.20 0.21 0.23 0.25 0.26 0.33 0.37 0.39 0.39 0.39 0.37 0.33 0.28 0.25 0.24 0.23 0.24 0.26 0.26 0.27 0.27 0.24 0.22 0.20 0.20 0.19 0.17 0.14 0.12 0.12
0.06 0.06 0.06 0.06 0.07 0.07 0.06 0.06 0.06 0.06 0.06 0.07 0.07 0.07 0.08 0.08 0.08 0.09 0.11 0.13 0.15 0.18 0.21 0.20 0.28 0.43 0.52 0.44 0.35 0.29 0.25 0.24 0.24 0.26 0.28 0.29 0.28 0.26 0.24 0.22 0.23 0.24 0.27 0.29 0.30 0.31 0.31 0.32 0.34 0.37 0.38 0.35 0.31 0.27 0.25 0.25 0.27 0.28 0.29 0.28 0.26 0.23 0.21 0.21 0.19 0.17 0.15 0.13 0.12
0.06 0.07 0.07 0.07 0.07 0.07 0.07 0.06 0.06 0.06 0.07 0.07 0.07 0.07 0.07 0.07 0.07 0.08 0.11 0.14 0.15 0.15 0.16 0.17 0.23 0.40 0.58 0.70 0.54 0.42 0.35 0.30 0.27 0.27 0.29 0.32 0.31 0.29 0.27 0.25 0.29 0.31 0.29 0.21 0.18 0.16 0.15 0.15 0.23 0.30 0.36 0.42 0.39 0.35 0.30 0.28 0.29 0.26 0.24 0.23 0.22 0.20 0.18 0.19 0.19 0.19 0.17 0.15 0.17
0.07 0.07 0.08 0.08 0.08 0.08 0.07 0.07 0.07 0.07 0.07 0.07 0.07 0.07 0.07 0.07 0.07 0.08 0.10 0.13 0.13 0.13 0.14 0.15 0.17 0.21 0.30 0.48 0.57 0.56 0.50 0.44 0.35 0.31 0.30 0.33 0.32 0.30 0.28 0.28 0.28 0.25 0.20 0.13 0.11 0.10 0.10 0.11 0.14 0.23 0.35 0.47 0.47 0.42 0.35 0.28 0.26 0.24 0.22 0.22 0.20 0.18 0.16 0.15 0.17 0.19 0.21 0.21 0.23
0.07 0.08 0.08 0.08 0.08 0.08 0.08 0.07 0.07 0.07 0.08 0.08 0.08 0.08 0.07 0.07 0.07 0.07 0.09 0.10 0.11 0.13 0.14 0.14 0.14 0.15 0.19 0.24 0.32 0.44 0.57 0.65 0.56 0.46 0.38 0.34 0.31 0.30 0.28 0.25 0.23 0.18 0.13 0.12 0.11 0.10 0.10 0.12 0.14 0.17 0.25 0.45 0.49 0.48 0.42 0.34 0.31 0.28 0.25 0.25 0.24 0.21 0.18 0.17 0.17 0.18 0.21 0.28 0.28
0.08 0.08 0.08 0.09 0.09 0.08 0.08 0.07 0.08 0.08 0.09 0.08 0.08 0.08 0.07 0.07 0.07 0.07 0.08 0.09 0.12 0.14 0.14 0.13 0.14 0.17 0.20 0.22 0.25 0.30 0.41 0.61 0.74 0.70 0.57 0.43 0.33 0.28 0.25 0.20 0.18 0.15 0.12 0.11 0.11 0.11 0.12 0.13 0.15 0.17 0.21 0.28 0.37 0.43 0.45 0.42 0.38 0.33 0.30 0.29 0.28 0.25 0.22 0.19 0.18 0.19 0.21 0.23 0.26
0.08 0.08 0.09 0.09 0.09 0.09 0.08 0.07 0.08 0.09 0.09 0.09 0.08 0.08 0.07 0.07 0.08 0.08 0.08 0.09 0.13 0.14 0.14 0.14 0.19 0.24 0.28 0.27 0.27 0.28 0.32 0.40 0.66 0.78 0.76 0.58 0.42 0.35 0.30 0.25 0.19 0.15 0.13 0.12 0.12 0.13 0.13 0.14 0.16 0.18 0.22 0.29 0.32 0.35 0.38 0.42 0.43 0.40 0.35 0.32 0.33 0.31 0.26 0.21 0.20 0.20 0.20 0.20 0.22
0.08 0.08 0.09 0.09 0.09 0.09 0.09 0.08 0.09 0.10 0.09 0.09 0.08 0.08 0.08 0.08 0.09 0.09 0.09 0.10 0.13 0.14 0.14 0.15 0.29 0.39 0.43 0.40 0.37 0.34 0.33 0.33 0.48 0.65 0.75 0.67 0.54 0.46 0.40 0.36 0.26 0.20 0.17 0.15 0.14 0.14 0.14 0.15 0.17 0.19 0.23 0.28 0.31 0.33 0.34 0.36 0.40 0.41 0.41 0.41 0.42 0.39 0.34 0.27 0.22 0.20 0.19 0.17 0.19
0.08 0.08 0.08 0.09 0.09 0.09 0.09 0.09 0.10 0.10 0.10 0.09 0.09 0.09 0.09 0.09 0.09 0.08 0.08 0.10 0.11 0.11 0.13 0.14 0.37 0.50 0.54 0.48 0.47 0.44 0.40 0.36 0.37 0.48 0.59 0.64 0.60 0.53 0.45 0.39 0.33 0.30 0.27 0.22 0.19 0.17 0.17 0.18 0.22 0.25 0.27 0.30 0.32 0.35 0.38 0.41 0.40 0.40 0.42 0.47 0.49 0.48 0.44 0.35 0.27 0.23 0.21 0.18 0.17
0.08 0.08 0.08 0.08 0.08 0.09 0.09 0.10 0.11 0.11 0.10 0.10 0.10 0.10 0.09 0.08 0.08 0.08 0.08 0.09 0.09 0.10 0.11 0.14 0.30 0.39 0.41 0.38 0.42 0.44 0.44 0.41 0.41 0.42 0.46 0.54 0.53 0.49 0.45 0.42 0.37 0.35 0.34 0.31 0.25 0.22 0.22 0.24 0.29 0.32 0.34 0.36 0.35 0.40 0.45 0.46 0.44 0.42 0.42 0.47 0.49 0.53 0.53 0.43 0.32 0.27 0.25 0.22 0.21